Location: Vancouver
(49.2500°N, 123.1330°W)
Time: 23:40:55
(UTC-08:00)

ISS - All Passes

Search period start: 24 February 2018 00:00
Search period end: 06 March 2018 00:00
Orbit: 402 x 407 km, 51.6° (Epoch: 25 February)

Date Brightness Start Highest point End Pass type
(mag) Time Alt. Az. Time Alt. Az. Time Alt. Az.
24 Feb - 06:50:11 10° S 06:51:56 14° SE 06:53:42 10° ESE daylight
24 Feb - 08:24:40 10° WSW 08:27:55 63° SSE 08:31:10 10° ENE daylight
24 Feb - 10:01:15 10° W 10:04:28 55° N 10:07:42 10° ENE daylight
24 Feb - 11:37:54 10° WNW 11:41:11 72° NNE 11:44:27 10° E daylight
24 Feb - 13:14:33 10° W 13:17:31 32° SSW 13:20:28 10° SSE daylight
25 Feb - 07:32:38 10° SW 07:35:45 41° SSE 07:38:51 10° ENE daylight
25 Feb - 09:08:54 10° W 09:12:10 64° NNW 09:15:26 10° ENE daylight
25 Feb - 10:45:38 10° WNW 10:48:53 59° N 10:52:07 10° E daylight
25 Feb - 12:22:11 10° WNW 12:25:22 50° SSW 12:28:32 10° SE daylight
25 Feb - 14:00:39 10° SW 14:01:14 10° SW 14:01:48 10° SW daylight
26 Feb - 06:40:50 10° SSW 06:43:37 26° SE 06:46:25 10° E daylight
26 Feb - 08:16:35 10° WSW 08:19:52 81° NNW 08:23:10 10° ENE daylight
26 Feb - 09:53:19 10° WNW 09:56:33 54° N 09:59:47 10° E daylight
26 Feb - 11:29:53 10° WNW 11:33:09 76° SSW 11:36:25 10° ESE daylight
26 Feb - 13:07:00 10° W 13:09:14 17° SW 13:11:28 10° S daylight
27 Feb - 05:49:24 10° S 05:51:33 16° SE 05:53:43 10° E visible
27 Feb - 07:24:20 10° WSW 07:27:37 73° SSE 07:30:53 10° ENE daylight
27 Feb - 09:00:58 10° W 09:04:12 54° N 09:07:26 10° ENE daylight
27 Feb - 10:37:36 10° WNW 10:40:53 79° NNE 10:44:10 10° ESE daylight
27 Feb - 12:14:19 10° W 12:17:09 27° SW 12:19:59 10° SSE daylight
28 Feb - 06:32:13 10° SW 06:35:22 48° SSE 06:38:33 10° ENE daylight
28 Feb - 08:08:36 10° W 08:11:51 60° N 08:15:06 10° ENE daylight
28 Feb - 09:45:18 10° WNW 09:48:34 63° N 09:51:49 10° E daylight
28 Feb - 11:21:52 10° WNW 11:25:00 43° SSW 11:28:07 10° SE daylight
01 Mar - 05:40:16 10° SSW 05:43:12 30° SE 05:46:08 10° E visible
01 Mar - 07:16:14 10° WSW 07:19:31 74° NNW 07:22:48 10° ENE daylight
01 Mar - 08:52:58 10° WNW 08:56:13 55° N 08:59:26 10° E daylight
01 Mar - 10:29:31 10° WNW 10:32:46 66° SSW 10:36:01 10° ESE daylight
01 Mar - 12:06:53 10° WSW 12:08:46 15° SW 12:10:39 10° S daylight
02 Mar - 04:48:38 10° S 04:51:05 19° SE 04:53:31 10° E visible
02 Mar - 06:23:55 10° WSW 06:27:12 83° SSE 06:30:29 10° ENE daylight
02 Mar - 08:00:35 10° W 08:03:49 53° N 08:07:03 10° ENE daylight
02 Mar - 09:37:11 10° WNW 09:40:29 87° NNE 09:43:46 10° ESE daylight
02 Mar - 11:14:00 10° W 11:16:41 23° SW 11:19:21 10° SSE daylight
03 Mar - 03:57:42 10° SSE 03:59:00 12° SE 04:00:18 10° ESE visible
03 Mar - 05:31:41 10° SW 05:34:54 56° SSE 05:38:08 10° ENE visible
03 Mar - 07:08:10 10° W 07:11:26 57° N 07:14:40 10° ENE daylight
03 Mar - 08:44:52 10° WNW 08:48:08 67° NNE 08:51:24 10° E daylight
03 Mar - 10:21:27 10° W 10:24:31 37° SSW 10:27:33 10° SE daylight
04 Mar - 04:39:38 10° SW 04:42:40 36° SSE 04:45:43 10° E visible
04 Mar - 06:15:46 10° W 06:19:02 68° NNW 06:22:19 10° ENE visible
04 Mar - 07:52:30 10° WNW 07:55:44 57° N 07:58:59 10° E daylight
04 Mar - 09:29:02 10° WNW 09:32:16 57° SSW 09:35:29 10° SE daylight
04 Mar - 11:06:48 10° WSW 11:08:11 12° SW 11:09:34 10° SSW daylight
05 Mar - 03:47:50 10° SSW 03:50:29 23° SE 03:53:08 10° E visible
05 Mar - 05:23:22 10° WSW 05:26:40 88° NNW 05:29:58 10° ENE visible
05 Mar - 07:00:05 10° WNW 07:03:19 53° N 07:06:33 10° E daylight
05 Mar - 08:36:40 10° WNW 08:39:57 84° SSW 08:43:14 10° ESE daylight
05 Mar - 10:13:36 10° W 10:16:05 20° SW 10:18:32 10° S daylight
